Regional Weather Roundup
Issued by NWS Little Rock, AR

Home | Current Version | Previous Version | Graphics & Text | Print | Product List | Glossary On
Versions: 1 2 3 4 5 6 7 8 9 10 11 12 13 14 15 16 17 18 19 20 21 22 23 24 25 26 27 28 29 30 31 32 33 34 35 36 37 38 39 40 41 42 43 44 45 46 47 48 49 50
585
ASUS44 KLZK 250005
RWRLZK

WEATHER ROUNDUP FOR ARKANSAS
NATIONAL WEATHER SERVICE LITTLE ROCK AR
700 PM CDT WED MAY 24 2017

NOTE: "FAIR" INDICATES FEW OR NO CLOUDS BELOW 12,000 FEET WITH NO
SIGNIFICANT WEATHER AND/OR OBSTRUCTIONS TO VISIBILITY.

ARZ001-003-010-029-250100-
NORTHWEST ARKANSAS

CITY           SKY/WX    TMP DP  RH WIND       PRES   REMARKS
FAYETTEVILLE   MOSUNNY   63  47  55 NW12      29.70S
6HR MIN TEMP:  58; 6HR MAX TEMP:  64;

FORT SMITH     SUNNY     69  43  38 W16       29.69F
6HR MIN TEMP:  66; 6HR MAX TEMP:  71;

HARRISON       PTSUNNY   56  52  86 W7        29.68F
6HR MIN TEMP:  55; 6HR MAX TEMP:  63; 6HR PCP:  0.01;

BENTONVILLE    CLOUDY    63  45  51 NW10      29.70F
6HR MIN TEMP:  59; 6HR MAX TEMP:  64;

ROGERS         CLOUDY    63  48  58 W10G16    29.70S
6HR MIN TEMP:  58; 6HR MAX TEMP:  64; 6HR PCP:  0.02;

SILOAM SPGS    CLOUDY    64  45  48 NW9       29.70S
6HR MIN TEMP:  59; 6HR MAX TEMP:  64;

HIGHFILL       MOSUNNY   64  48  56 NW8       29.70S
6HR MIN TEMP:  60; 6HR MAX TEMP:  66;

SPRINGDALE     PTSUNNY   63  46  55 NW10      29.71S
$$

ARZ004-005-016-250100-
NORTH CENTRAL ARKANSAS

CITY           SKY/WX    TMP DP  RH WIND       PRES   REMARKS
BATESVILLE     MOSUNNY   61  46  59 W7        29.65R
6HR MIN TEMP:  59; 6HR MAX TEMP:  70;

FLIPPIN        PTSUNNY   59  48  67 NW7       29.65R
6HR MIN TEMP:  55; 6HR MAX TEMP:  64; 6HR PCP:  0.02;

MTN HOME       MOSUNNY   58  50  75 VRB5      29.65S
6HR MIN TEMP:  56; 6HR MAX TEMP:  64; 6HR PCP:  0.02;

$$

ARZ040-041-250100-
WEST CENTRAL ARKANSAS

CITY           SKY/WX    TMP DP  RH WIND       PRES   REMARKS
MENA           MOSUNNY   66  46  48 W10G16    29.72S
MOUNT IDA      SUNNY     67  45  45 NW7       29.68S
6HR MIN TEMP:  65; 6HR MAX TEMP:  69;

$$

ARZ009-017-025-026-028-250100-
NORTHEAST ARKANSAS

CITY           SKY/WX    TMP DP  RH WIND       PRES   REMARKS
JONESBORO      MOSUNNY   64  50  60 W13G21    29.60S
6HR MIN TEMP:  55; 6HR MAX TEMP:  70; 6HR PCP:  0.11;

WALNUT RIDGE   SUNNY     64  46  52 CALM      29.61R
6HR MIN TEMP:  57; 6HR MAX TEMP:  68; 6HR PCP:  0.04;

BLYTHEVILLE    PTSUNNY   63  52  67 W15       29.59R
6HR MIN TEMP:  58; 6HR MAX TEMP:  73; 6HR PCP:  0.01;

$$

ARZ022-023-033-042-044-250100-
CENTRAL ARKANSAS

CITY           SKY/WX    TMP DP  RH WIND       PRES   REMARKS
LITTLE ROCK    MOSUNNY   68  46  45 W17G26    29.65R
6HR MIN TEMP:  64; 6HR MAX TEMP:  72;

N LITTLE ROCK    N/A     65  49  55 W6        29.66R
6HR MIN TEMP:  62; 6HR MAX TEMP:  68;

JACKSONVILLE   MOSUNNY   68  49  49 W10       29.64S
6HR MIN TEMP:  64; 6HR MAX TEMP:  71; 6HR PCP: TRACE;

CONWAY           N/A     68  46  45 W16G24    29.64S
SEARCY         CLOUDY    65  50  58 N9        29.66R
6HR MIN TEMP:  57; 6HR MAX TEMP:  69; 6HR PCP:  0.20;

HOT SPRINGS    PTSUNNY   66  49  54 W10       29.68S
6HR MIN TEMP:  66; 6HR MAX TEMP:  71;

RUSSELLVILLE   PTSUNNY   66  46  48 W10       29.66R
6HR MIN TEMP:  66; 6HR MAX TEMP:  70;

CLINTON        DRIZZLE   61  52  72 NW9       29.68R
$$

ARZ036-250100-
EAST ARKANSAS

CITY           SKY/WX    TMP DP  RH WIND       PRES   REMARKS
WEST MEMPHIS   PTSUNNY   63  54  72 VRB6      29.60S
6HR MIN TEMP:  57; 6HR MAX TEMP:  69; 6HR PCP:  0.07;

$$

ARZ050-053-066-070-073-250100-
SOUTHWEST ARKANSAS

CITY           SKY/WX    TMP DP  RH WIND       PRES   REMARKS
ARKADELPHIA    FAIR      68  51  54 W7        29.69S
6HR MIN TEMP:  66; 6HR MAX TEMP:  71;

CAMDEN         SUNNY     68  45  42 W7        29.69S
TEXARKANA      MOSUNNY   68  48  48 NW8       29.71S
6HR MIN TEMP:  67; 6HR MAX TEMP:  72;

EL DORADO      SUNNY     68  48  48 W9        29.70S
6HR MIN TEMP:  64; 6HR MAX TEMP:  71;

DE QUEEN       SUNNY     69  47  45 NW10      29.70S
6HR MIN TEMP:  67; 6HR MAX TEMP:  71;

$$

ARZ056-057-069-250100-
SOUTHEAST ARKANSAS

CITY           SKY/WX    TMP DP  RH WIND       PRES   REMARKS
PINE BLUFF     PTSUNNY   67  48  50 W17G23    29.65S
6HR MIN TEMP:  65; 6HR MAX TEMP:  70;

STUTTGART      CLOUDY    64  43  45 NW10      29.64S
6HR MIN TEMP:  64; 6HR MAX TEMP:  72;

MONTICELLO     MOSUNNY   68  51  54 W7        29.66S
6HR MIN TEMP:  66; 6HR MAX TEMP:  70;


$$






USA.gov is the U.S. government's official web portal to all federal, state and local government web resources and services.